Time,TemperatureF,DewpointF,PressureIn,WindDirection,WindDirectionDegrees,WindSpeedMPH,WindSpeedGustMPH,Humidity,HourlyPrecipIn,Conditions,Clouds,dailyrainin,SoftwareType,DateUTC
2013-03-08 00:00:00,41.6,38.0,29.92,NNE,23,2.0,3.0,87,0.00,,,0.00,weatherlink.com 1.10,2013-03-08 08:00:00,
2013-03-08 00:15:00,41.1,38.0,29.91,NNE,32,0.0,3.0,89,0.00,,,0.00,weatherlink.com 1.10,2013-03-08 08:15:00,
2013-03-08 00:30:00,40.7,38.0,29.92,NNE,28,0.0,3.0,89,0.00,,,0.00,weatherlink.com 1.10,2013-03-08 08:30:00,
2013-03-08 00:45:00,40.5,38.0,29.91,NNE,20,0.0,0.0,89,0.00,,,0.00,weatherlink.com 1.10,2013-03-08 08:45:00,
2013-03-08 01:00:00,40.2,37.0,29.91,NNE,31,0.0,3.0,89,0.00,,,0.00,weatherlink.com 1.10,2013-03-08 09:00:00,
2013-03-08 01:15:00,39.9,37.0,29.92,NNE,19,0.0,3.0,90,0.00,,,0.00,weatherlink.com 1.10,2013-03-08 09:15:00,
2013-03-08 01:30:00,39.3,37.0,29.92,NNE,29,0.0,5.0,90,0.00,,,0.00,weatherlink.com 1.10,2013-03-08 09:30:00,
2013-03-08 01:45:00,38.8,36.0,29.92,NE,36,0.0,7.0,91,0.00,,,0.00,weatherlink.com 1.10,2013-03-08 09:45:00,
2013-03-08 02:00:00,38.0,36.0,29.91,NNE,26,3.0,5.0,92,0.00,,,0.00,weatherlink.com 1.10,2013-03-08 10:00:00,
2013-03-08 02:15:00,37.7,36.0,29.91,NNE,28,0.0,5.0,93,0.00,,,0.00,weatherlink.com 1.10,2013-03-08 10:15:00,
2013-03-08 02:30:00,37.5,36.0,29.91,NNE,19,0.0,3.0,93,0.00,,,0.00,weatherlink.com 1.10,2013-03-08 10:30:00,
2013-03-08 02:45:00,37.6,36.0,29.91,NNE,22,0.0,0.0,93,0.00,,,0.00,weatherlink.com 1.10,2013-03-08 10:45:00,
2013-03-08 03:00:00,38.2,36.0,29.89,NNE,16,3.0,7.0,92,0.00,,,0.00,weatherlink.com 1.10,2013-03-08 11:00:00,
2013-03-08 03:15:00,38.0,36.0,29.90,NNE,22,1.0,1.0,92,0.00,,,0.00,weatherlink.com 1.10,2013-03-08 11:15:00,
2013-03-08 03:30:00,38.2,36.0,29.89,NNE,28,1.0,5.0,91,0.00,,,0.00,weatherlink.com 1.10,2013-03-08 11:30:00,
2013-03-08 03:45:00,37.4,35.0,29.89,NNE,30,3.0,7.0,92,0.00,,,0.00,weatherlink.com 1.10,2013-03-08 11:45:00,
2013-03-08 04:00:00,38.1,36.0,29.89,NNE,12,4.0,9.0,91,0.00,,,0.00,weatherlink.com 1.10,2013-03-08 12:00:00,
2013-03-08 04:15:00,37.8,36.0,29.90,NNE,28,0.0,6.0,92,0.00,,,0.00,weatherlink.com 1.10,2013-03-08 12:15:00,
2013-03-08 04:30:00,36.9,35.0,29.90,NNE,33,1.0,6.0,92,0.00,,,0.00,weatherlink.com 1.10,2013-03-08 12:30:00,
2013-03-08 04:45:00,36.6,35.0,29.90,NNE,23,0.0,4.0,93,0.00,,,0.00,weatherlink.com 1.10,2013-03-08 12:45:00,
2013-03-08 05:00:00,35.9,34.0,29.90,NNE,26,2.0,5.0,93,0.00,,,0.00,weatherlink.com 1.10,2013-03-08 13:00:00,
2013-03-08 05:15:00,35.8,34.0,29.91,NNE,29,0.0,6.0,94,0.00,,,0.00,weatherlink.com 1.10,2013-03-08 13:15:00,
2013-03-08 05:30:00,36.4,35.0,29.91,NNE,33,0.0,7.0,94,0.00,,,0.00,weatherlink.com 1.10,2013-03-08 13:30:00,
2013-03-08 05:45:00,36.8,35.0,29.91,NNE,30,0.0,5.0,93,0.00,,,0.00,weatherlink.com 1.10,2013-03-08 13:45:00,
2013-03-08 06:00:00,35.9,34.0,29.91,NNE,30,0.0,4.0,94,0.00,,,0.00,weatherlink.com 1.10,2013-03-08 14:00:00,
2013-03-08 06:15:00,36.2,35.0,29.91,NNE,26,0.0,5.0,94,0.00,,,0.00,weatherlink.com 1.10,2013-03-08 14:15:00,
2013-03-08 06:30:00,35.2,34.0,29.91,NNE,29,0.0,6.0,94,0.00,,,0.00,weatherlink.com 1.10,2013-03-08 14:30:00,
2013-03-08 06:45:00,35.0,34.0,29.91,NE,39,1.0,5.0,95,0.00,,,0.00,weatherlink.com 1.10,2013-03-08 14:45:00,
2013-03-08 07:01:00,36.0,35.0,29.91,NE,51,2.0,8.0,95,0.00,,,0.00,weatherlink.com 1.10,2013-03-08 15:01:00,
2013-03-08 07:16:00,35.9,35.0,29.92,NNE,29,0.0,6.0,95,0.00,,,0.00,weatherlink.com 1.10,2013-03-08 15:16:00,
2013-03-08 07:31:00,36.3,35.0,29.92,NNE,33,0.0,4.0,95,0.00,,,0.00,weatherlink.com 1.10,2013-03-08 15:31:00,
2013-03-08 07:46:00,37.2,36.0,29.92,NNE,30,0.0,2.0,95,0.00,,,0.00,weatherlink.com 1.10,2013-03-08 15:46:00,
2013-03-08 08:01:00,38.5,37.0,29.93,NNE,25,0.0,4.0,95,0.00,,,0.00,weatherlink.com 1.10,2013-03-08 16:01:00,
2013-03-08 08:16:00,38.9,37.0,29.93,NNE,28,0.0,3.0,93,0.00,,,0.00,weatherlink.com 1.10,2013-03-08 16:16:00,
2013-03-08 08:31:00,40.0,38.0,29.93,NNE,25,0.0,2.0,93,0.00,,,0.00,weatherlink.com 1.10,2013-03-08 16:31:00,
2013-03-08 08:46:00,41.6,40.0,29.93,NNE,31,0.0,1.0,92,0.00,,,0.00,weatherlink.com 1.10,2013-03-08 16:46:00,
2013-03-08 09:01:00,42.9,41.0,29.93,NNE,27,0.0,2.0,91,0.00,,,0.00,weatherlink.com 1.10,2013-03-08 17:01:00,
2013-03-08 09:16:00,45.4,42.0,29.93,NNE,30,0.0,0.0,88,0.00,,,0.00,weatherlink.com 1.10,2013-03-08 17:16:00,
2013-03-08 09:31:00,47.6,43.0,29.93,ESE,113,0.0,2.0,84,0.00,,,0.00,weatherlink.com 1.10,2013-03-08 17:31:00,
2013-03-08 09:46:00,50.5,45.0,29.93,SSE,165,1.0,4.0,82,0.00,,,0.00,weatherlink.com 1.10,2013-03-08 17:46:00,
2013-03-08 10:01:00,52.4,45.0,29.93,SSW,206,3.0,5.0,76,0.00,,,0.00,weatherlink.com 1.10,2013-03-08 18:01:00,
2013-03-08 10:16:00,54.0,46.0,29.93,SW,230,5.0,6.0,74,0.00,,,0.00,weatherlink.com 1.10,2013-03-08 18:16:00,
2013-03-08 10:31:00,53.1,45.0,29.93,SSW,194,5.0,9.0,73,0.00,,,0.00,weatherlink.com 1.10,2013-03-08 18:31:00,
2013-03-08 10:46:00,53.6,45.0,29.93,West,270,6.0,9.0,73,0.00,,,0.00,weatherlink.com 1.10,2013-03-08 18:46:00,
2013-03-08 11:01:00,54.1,46.0,29.93,SE,144,0.0,7.0,73,0.00,,,0.00,weatherlink.com 1.10,2013-03-08 19:01:00,
2013-03-08 11:16:00,55.2,46.0,29.93,SSW,207,5.0,8.0,71,0.00,,,0.00,weatherlink.com 1.10,2013-03-08 19:16:00,
2013-03-08 11:31:00,56.1,46.0,29.93,South,188,5.0,6.0,70,0.00,,,0.00,weatherlink.com 1.10,2013-03-08 19:31:00,
2013-03-08 11:46:00,55.2,46.0,29.93,SW,226,5.0,9.0,71,0.00,,,0.00,weatherlink.com 1.10,2013-03-08 19:46:00,
2013-03-08 12:01:00,55.4,46.0,29.93,SE,136,7.0,9.0,71,0.00,,,0.00,weatherlink.com 1.10,2013-03-08 20:01:00,
2013-03-08 12:16:00,55.7,47.0,29.93,SW,228,2.0,10.0,72,0.00,,,0.00,weatherlink.com 1.10,2013-03-08 20:16:00,
2013-03-08 12:31:00,56.2,47.0,29.93,SW,234,4.0,8.0,70,0.00,,,0.00,weatherlink.com 1.10,2013-03-08 20:31:00,
2013-03-08 12:46:00,56.4,46.0,29.92,SE,137,2.0,9.0,69,0.00,,,0.00,weatherlink.com 1.10,2013-03-08 20:46:00,
2013-03-08 13:02:00,56.7,47.0,29.92,South,182,6.0,9.0,70,0.00,,,0.00,weatherlink.com 1.10,2013-03-08 21:02:00,
2013-03-08 13:17:00,57.0,47.0,29.92,West,263,2.0,11.0,69,0.00,,,0.00,weatherlink.com 1.10,2013-03-08 21:17:00,
2013-03-08 13:32:00,57.1,47.0,29.92,SSE,164,4.0,13.0,68,0.00,,,0.00,weatherlink.com 1.10,2013-03-08 21:32:00,
2013-03-08 13:47:00,57.5,46.0,29.91,WSW,248,2.0,9.0,66,0.00,,,0.00,weatherlink.com 1.10,2013-03-08 21:47:00,
2013-03-08 14:02:00,57.8,46.0,29.91,ESE,113,2.0,9.0,65,0.00,,,0.00,weatherlink.com 1.10,2013-03-08 22:02:00,
2013-03-08 14:17:00,57.3,46.0,29.92,South,179,8.0,10.0,67,0.00,,,0.00,weatherlink.com 1.10,2013-03-08 22:17:00,
2013-03-08 14:32:00,56.1,45.0,29.93,SW,230,2.0,13.0,67,0.00,,,0.00,weatherlink.com 1.10,2013-03-08 22:32:00,
2013-03-08 14:47:00,56.4,45.0,29.93,SSW,209,5.0,11.0,67,0.00,,,0.00,weatherlink.com 1.10,2013-03-08 22:47:00,
2013-03-08 15:02:00,57.1,44.0,29.93,SE,138,3.0,11.0,63,0.00,,,0.00,weatherlink.com 1.10,2013-03-08 23:02:00,
2013-03-08 15:17:00,56.9,45.0,29.93,WSW,244,3.0,8.0,64,0.00,,,0.00,weatherlink.com 1.10,2013-03-08 23:17:00,
2013-03-08 15:32:00,56.5,45.0,29.94,West,270,0.0,8.0,65,0.00,,,0.00,weatherlink.com 1.10,2013-03-08 23:32:00,
2013-03-08 15:47:00,56.1,45.0,29.94,SE,143,1.0,7.0,66,0.00,,,0.00,weatherlink.com 1.10,2013-03-08 23:47:00,
2013-03-08 16:02:00,56.6,45.0,29.94,SSE,155,2.0,6.0,65,0.00,,,0.00,weatherlink.com 1.10,2013-03-09 00:02:00,
2013-03-08 16:17:00,56.3,45.0,29.94,NW,315,2.0,5.0,66,0.00,,,0.00,weatherlink.com 1.10,2013-03-09 00:17:00,
2013-03-08 16:32:00,56.6,45.0,29.94,East,84,7.0,7.0,65,0.00,,,0.00,weatherlink.com 1.10,2013-03-09 00:32:00,
2013-03-08 16:47:00,56.4,45.0,29.95,ESE,119,0.0,4.0,65,0.00,,,0.00,weatherlink.com 1.10,2013-03-09 00:47:00,
2013-03-08 17:02:00,56.1,44.0,29.95,WSW,258,0.0,5.0,65,0.00,,,0.00,weatherlink.com 1.10,2013-03-09 01:02:00,
2013-03-08 17:17:00,55.1,44.0,29.95,WSW,258,0.0,4.0,67,0.00,,,0.00,weatherlink.com 1.10,2013-03-09 01:17:00,
2013-03-08 17:32:00,53.8,44.0,29.96,SE,138,0.0,3.0,69,0.00,,,0.00,weatherlink.com 1.10,2013-03-09 01:32:00,
2013-03-08 17:47:00,52.4,44.0,29.97,SE,130,0.0,5.0,72,0.00,,,0.00,weatherlink.com 1.10,2013-03-09 01:47:00,
2013-03-08 18:02:00,50.2,43.0,29.98,East,96,0.0,3.0,75,0.00,,,0.00,weatherlink.com 1.10,2013-03-09 02:02:00,
2013-03-08 18:17:00,48.5,42.0,29.99,NW,315,0.0,5.0,78,0.00,,,0.00,weatherlink.com 1.10,2013-03-09 02:17:00,
2013-03-08 18:32:00,47.5,42.0,30.00,ENE,76,0.0,3.0,80,0.00,,,0.00,weatherlink.com 1.10,2013-03-09 02:32:00,
2013-03-08 18:47:00,46.7,42.0,30.01,SE,126,0.0,5.0,83,0.00,,,0.00,weatherlink.com 1.10,2013-03-09 02:47:00,
2013-03-08 19:02:00,46.3,42.0,30.02,West,265,0.0,6.0,85,0.00,,,0.00,weatherlink.com 1.10,2013-03-09 03:02:00,
2013-03-08 19:17:00,46.1,42.0,30.02,North,355,0.0,6.0,85,0.00,,,0.00,weatherlink.com 1.10,2013-03-09 03:17:00,
2013-03-08 19:32:00,46.1,42.0,30.03,NNW,336,0.0,8.0,86,0.00,,,0.00,weatherlink.com 1.10,2013-03-09 03:32:00,
2013-03-08 19:47:00,46.0,42.0,30.03,NW,317,1.0,3.0,86,0.00,,,0.00,weatherlink.com 1.10,2013-03-09 03:47:00,
2013-03-08 20:02:00,46.1,42.0,30.04,ENE,61,0.0,3.0,86,0.00,,,0.00,weatherlink.com 1.10,2013-03-09 04:02:00,
2013-03-08 20:17:00,45.8,42.0,30.04,ESE,107,0.0,2.0,87,0.00,,,0.00,weatherlink.com 1.10,2013-03-09 04:17:00,
2013-03-08 20:32:00,45.7,42.0,30.04,North,5,0.0,1.0,87,0.00,,,0.00,weatherlink.com 1.10,2013-03-09 04:32:00,
2013-03-08 20:47:00,45.4,42.0,30.05,North,355,0.0,2.0,88,0.00,,,0.00,weatherlink.com 1.10,2013-03-09 04:47:00,
2013-03-08 21:02:00,45.2,42.0,30.05,WSW,246,0.0,7.0,87,0.00,,,0.00,weatherlink.com 1.10,2013-03-09 05:02:00,
2013-03-08 21:17:00,44.9,41.0,30.06,NNE,12,0.0,5.0,87,0.00,,,0.00,weatherlink.com 1.10,2013-03-09 05:17:00,
2013-03-08 21:32:00,43.8,41.0,30.07,NNE,19,0.0,2.0,88,0.00,,,0.00,weatherlink.com 1.10,2013-03-09 05:32:00,
2013-03-08 21:47:00,43.7,40.0,30.08,North,9,0.0,4.0,88,0.00,,,0.00,weatherlink.com 1.10,2013-03-09 05:47:00,
2013-03-08 22:02:00,43.8,40.0,30.08,NNE,13,0.0,3.0,87,0.00,,,0.00,weatherlink.com 1.10,2013-03-09 06:02:00,
2013-03-08 22:17:00,43.7,40.0,30.09,NNE,22,0.0,2.0,87,0.00,,,0.00,weatherlink.com 1.10,2013-03-09 06:17:00,
2013-03-08 22:47:00,43.7,40.0,30.08,North,5,0.0,0.0,88,0.00,,,0.00,weatherlink.com 1.10,2013-03-09 06:47:00,
2013-03-08 23:02:00,43.1,40.0,30.08,NNE,32,0.0,1.0,89,0.00,,,0.00,weatherlink.com 1.10,2013-03-09 07:02:00,
2013-03-08 23:17:00,42.7,40.0,30.09,NNE,17,0.0,0.0,90,0.00,,,0.00,weatherlink.com 1.10,2013-03-09 07:17:00,
2013-03-08 23:32:00,42.5,40.0,30.09,North,350,0.0,0.0,89,0.00,,,0.00,weatherlink.com 1.10,2013-03-09 07:32:00,
2013-03-08 23:47:00,42.8,40.0,30.09,NNE,28,0.0,2.0,88,0.00,,,0.00,weatherlink.com 1.10,2013-03-09 07:47:00,